Year,Month,Day,Hour,Minute,Value (Times are PST for temperature in C)
2016,08,08,00,00,14.60
2016,08,08,00,01,14.60
2016,08,08,00,02,14.60
2016,08,08,00,03,14.60
2016,08,08,00,04,14.60
2016,08,08,00,05,14.60
2016,08,08,00,06,14.60
2016,08,08,00,07,14.60
2016,08,08,00,08,14.60
2016,08,08,00,09,14.60
2016,08,08,00,10,14.60
2016,08,08,00,11,14.60
2016,08,08,00,12,14.60
2016,08,08,00,13,14.60
2016,08,08,00,14,14.60
2016,08,08,00,15,14.60
2016,08,08,00,16,14.60
2016,08,08,00,17,14.60
2016,08,08,00,18,14.60
2016,08,08,00,19,14.60
2016,08,08,00,20,14.60
2016,08,08,00,21,14.70
2016,08,08,00,22,14.70
2016,08,08,00,23,14.70
2016,08,08,00,24,14.70
2016,08,08,00,25,14.70
2016,08,08,00,26,14.70
2016,08,08,00,27,14.70
2016,08,08,00,28,14.60
2016,08,08,00,29,14.60
2016,08,08,00,30,14.60
2016,08,08,00,31,14.60
2016,08,08,00,32,14.60
2016,08,08,00,33,14.50
2016,08,08,00,34,14.50
2016,08,08,00,35,14.50
2016,08,08,00,36,14.50
2016,08,08,00,37,14.50
2016,08,08,00,38,14.50
2016,08,08,00,39,14.50
2016,08,08,00,40,14.50
2016,08,08,00,41,14.50
2016,08,08,00,42,14.50
2016,08,08,00,43,14.50
2016,08,08,00,44,14.50
2016,08,08,00,45,14.50
2016,08,08,00,46,14.50
2016,08,08,00,47,14.50
2016,08,08,00,48,14.40
2016,08,08,00,49,14.40
2016,08,08,00,50,14.40
2016,08,08,00,51,14.30
2016,08,08,00,52,14.30
2016,08,08,00,53,14.30
2016,08,08,00,54,14.20
2016,08,08,00,55,14.20
2016,08,08,00,56,14.20
2016,08,08,00,57,14.20
2016,08,08,00,58,14.20
2016,08,08,00,59,14.10
2016,08,08,01,00,14.10
2016,08,08,01,01,14.10
2016,08,08,01,02,14.10
2016,08,08,01,03,14.10
2016,08,08,01,04,14.10
2016,08,08,01,05,14.10
2016,08,08,01,06,14.10
2016,08,08,01,07,14.10
2016,08,08,01,08,14.10
2016,08,08,01,09,14.10
2016,08,08,01,10,14.10
2016,08,08,01,11,14.00
2016,08,08,01,12,14.00
2016,08,08,01,13,14.00
2016,08,08,01,14,14.00
2016,08,08,01,15,14.00
2016,08,08,01,16,14.00
2016,08,08,01,17,14.00
2016,08,08,01,18,14.00
2016,08,08,01,19,14.10
2016,08,08,01,20,14.10
2016,08,08,01,21,14.10
2016,08,08,01,22,14.00
2016,08,08,01,23,14.10
2016,08,08,01,24,14.00
2016,08,08,01,25,14.00
2016,08,08,01,26,14.00
2016,08,08,01,27,14.00
2016,08,08,01,28,14.00
2016,08,08,01,29,14.00
2016,08,08,01,30,14.00
2016,08,08,01,31,14.00
2016,08,08,01,32,14.00
2016,08,08,01,33,14.00
2016,08,08,01,34,14.00
2016,08,08,01,35,14.00
2016,08,08,01,36,14.00
2016,08,08,01,37,14.00
2016,08,08,01,38,14.00
2016,08,08,01,39,14.00
2016,08,08,01,40,14.00
2016,08,08,01,41,14.00
2016,08,08,01,42,14.00
2016,08,08,01,43,14.00
2016,08,08,01,44,14.00
2016,08,08,01,45,14.00
2016,08,08,01,46,14.10
2016,08,08,01,47,14.10
2016,08,08,01,48,14.10
2016,08,08,01,49,14.10
2016,08,08,01,50,14.10
2016,08,08,01,51,14.10
2016,08,08,01,52,14.10
2016,08,08,01,53,14.10
2016,08,08,01,54,14.20
2016,08,08,01,55,14.20
2016,08,08,01,56,14.20
2016,08,08,01,57,14.20
2016,08,08,01,58,14.20
2016,08,08,01,59,14.20
2016,08,08,02,00,14.20
2016,08,08,02,01,14.20
2016,08,08,02,02,14.20
2016,08,08,02,03,14.10
2016,08,08,02,04,14.10
2016,08,08,02,05,14.10
2016,08,08,02,06,14.10
2016,08,08,02,07,14.10
2016,08,08,02,08,14.10
2016,08,08,02,09,14.10
2016,08,08,02,10,14.10
2016,08,08,02,11,14.10
2016,08,08,02,12,14.10
2016,08,08,02,13,14.10
2016,08,08,02,14,14.00
2016,08,08,02,15,14.00
2016,08,08,02,16,14.00
2016,08,08,02,17,14.00
2016,08,08,02,18,13.90
2016,08,08,02,19,13.90
2016,08,08,02,20,14.00
2016,08,08,02,21,14.00
2016,08,08,02,22,13.90
2016,08,08,02,23,13.90
2016,08,08,02,24,13.90
2016,08,08,02,25,13.90
2016,08,08,02,26,13.90
2016,08,08,02,27,13.80
2016,08,08,02,28,13.80
2016,08,08,02,29,13.80
2016,08,08,02,30,13.80
2016,08,08,02,31,13.80
2016,08,08,02,32,13.80
2016,08,08,02,33,13.80
2016,08,08,02,34,13.80
2016,08,08,02,35,13.80
2016,08,08,02,36,13.80
2016,08,08,02,37,13.80
2016,08,08,02,38,13.80
2016,08,08,02,39,13.80
2016,08,08,02,40,13.80
2016,08,08,02,41,13.80
2016,08,08,02,42,13.80
2016,08,08,02,43,13.80
2016,08,08,02,44,13.80
2016,08,08,02,45,13.80
2016,08,08,02,46,13.80
2016,08,08,02,47,13.80
2016,08,08,02,48,13.80
2016,08,08,02,49,13.80
2016,08,08,02,50,13.80
2016,08,08,02,51,13.80
2016,08,08,02,52,13.80
2016,08,08,02,53,13.70
2016,08,08,02,54,13.70
2016,08,08,02,55,13.70
2016,08,08,02,56,13.70
2016,08,08,02,57,13.70
2016,08,08,02,58,13.70
2016,08,08,02,59,13.70
2016,08,08,03,00,13.70
2016,08,08,03,01,13.70
2016,08,08,03,02,13.70
2016,08,08,03,03,13.70
2016,08,08,03,04,13.70
2016,08,08,03,05,13.70
2016,08,08,03,06,13.70
2016,08,08,03,07,13.70
2016,08,08,03,08,13.60
2016,08,08,03,09,13.60
2016,08,08,03,10,13.60
2016,08,08,03,11,13.60
2016,08,08,03,12,13.60
2016,08,08,03,13,13.60
2016,08,08,03,14,13.60
2016,08,08,03,15,13.60
2016,08,08,03,16,13.60
2016,08,08,03,17,13.50
2016,08,08,03,18,13.50
2016,08,08,03,19,13.50
2016,08,08,03,20,13.50
2016,08,08,03,21,13.40
2016,08,08,03,22,13.40
2016,08,08,03,23,13.40
2016,08,08,03,24,13.40
2016,08,08,03,25,13.40
2016,08,08,03,26,13.40
2016,08,08,03,27,13.40
2016,08,08,03,28,13.40
2016,08,08,03,29,13.40
2016,08,08,03,30,13.40
2016,08,08,03,31,13.40
2016,08,08,03,32,13.40
2016,08,08,03,33,13.40
2016,08,08,03,34,13.40
2016,08,08,03,35,13.40
2016,08,08,03,36,13.40
2016,08,08,03,37,13.40
2016,08,08,03,38,13.40
2016,08,08,03,39,13.50
2016,08,08,03,40,13.50
2016,08,08,03,41,13.50
2016,08,08,03,42,13.50
2016,08,08,03,43,13.40
2016,08,08,03,44,13.40
2016,08,08,03,45,13.40
2016,08,08,03,46,13.40
2016,08,08,03,47,13.40
2016,08,08,03,48,13.40
2016,08,08,03,49,13.40
2016,08,08,03,50,13.40
2016,08,08,03,51,13.40
2016,08,08,03,52,13.40
2016,08,08,03,53,13.40
2016,08,08,03,54,13.40
2016,08,08,03,55,13.30
2016,08,08,03,56,13.30
2016,08,08,03,57,13.40
2016,08,08,03,58,13.40
2016,08,08,03,59,13.40
2016,08,08,04,00,13.40
2016,08,08,04,01,13.40
2016,08,08,04,02,13.40
2016,08,08,04,03,13.40
2016,08,08,04,04,13.40
2016,08,08,04,05,13.40
2016,08,08,04,06,13.40
2016,08,08,04,07,13.40
2016,08,08,04,08,13.40
2016,08,08,04,09,13.40
2016,08,08,04,10,13.40
2016,08,08,04,11,13.40
2016,08,08,04,12,13.40
2016,08,08,04,13,13.40
2016,08,08,04,14,13.40
2016,08,08,04,15,13.40
2016,08,08,04,16,13.40
2016,08,08,04,17,13.40
2016,08,08,04,18,13.40
2016,08,08,04,19,13.40
2016,08,08,04,20,13.40
2016,08,08,04,21,13.40
2016,08,08,04,22,13.50
2016,08,08,04,23,13.50
2016,08,08,04,24,13.50
2016,08,08,04,25,13.50
2016,08,08,04,26,13.50
2016,08,08,04,27,13.50
2016,08,08,04,28,13.50
2016,08,08,04,29,13.50
2016,08,08,04,30,13.50
2016,08,08,04,31,13.50
2016,08,08,04,32,13.50
2016,08,08,04,33,13.50
2016,08,08,04,34,13.50
2016,08,08,04,35,13.50
2016,08,08,04,36,13.50
2016,08,08,04,37,13.60
2016,08,08,04,38,13.60
2016,08,08,04,39,13.60
2016,08,08,04,40,13.60
2016,08,08,04,41,13.60
2016,08,08,04,42,13.60
2016,08,08,04,43,13.60
2016,08,08,04,44,13.60
2016,08,08,04,45,13.50
2016,08,08,04,46,13.50
2016,08,08,04,47,13.50
2016,08,08,04,48,13.50
2016,08,08,04,49,13.50
2016,08,08,04,50,13.50
2016,08,08,04,51,13.50
2016,08,08,04,52,13.50
2016,08,08,04,53,13.40
2016,08,08,04,54,13.40
2016,08,08,04,55,13.40
2016,08,08,04,56,13.40
2016,08,08,04,57,13.40
2016,08,08,04,58,13.40
2016,08,08,04,59,13.40
2016,08,08,05,00,13.40
2016,08,08,05,01,13.40
2016,08,08,05,02,13.40
2016,08,08,05,03,13.40
2016,08,08,05,04,13.40
2016,08,08,05,05,13.40
2016,08,08,05,06,13.40
2016,08,08,05,07,13.40
2016,08,08,05,08,13.40
2016,08,08,05,09,13.40
2016,08,08,05,10,13.40
2016,08,08,05,11,13.50
2016,08,08,05,12,13.50
2016,08,08,05,13,13.50
2016,08,08,05,14,13.50
2016,08,08,05,15,13.50
2016,08,08,05,16,13.50
2016,08,08,05,17,13.50
2016,08,08,05,18,13.50
2016,08,08,05,19,13.50
2016,08,08,05,20,13.50
2016,08,08,05,21,13.50
2016,08,08,05,22,13.50
2016,08,08,05,23,13.50
2016,08,08,05,24,13.50
2016,08,08,05,25,13.50
2016,08,08,05,26,13.50
2016,08,08,05,27,13.50
2016,08,08,05,28,13.50
2016,08,08,05,29,13.50
2016,08,08,05,30,13.60
2016,08,08,05,31,13.60
2016,08,08,05,32,13.60
2016,08,08,05,33,13.60
2016,08,08,05,34,13.60
2016,08,08,05,35,13.70
2016,08,08,05,36,13.70
2016,08,08,05,37,13.70
2016,08,08,05,38,13.70
2016,08,08,05,39,13.70
2016,08,08,05,40,13.70
2016,08,08,05,41,13.70
2016,08,08,05,42,13.70
2016,08,08,05,43,13.70
2016,08,08,05,44,13.70
2016,08,08,05,45,13.60
2016,08,08,05,46,13.60
2016,08,08,05,47,13.60
2016,08,08,05,48,13.60
2016,08,08,05,49,13.60
2016,08,08,05,50,13.60
2016,08,08,05,51,13.60
2016,08,08,05,52,13.60
2016,08,08,05,53,13.60
2016,08,08,05,54,13.60
2016,08,08,05,55,13.60
2016,08,08,05,56,13.60
2016,08,08,05,57,13.60
2016,08,08,05,58,13.60
2016,08,08,05,59,13.60
2016,08,08,06,00,13.60
2016,08,08,06,01,13.60
2016,08,08,06,02,13.60
2016,08,08,06,03,13.60
2016,08,08,06,04,13.60
2016,08,08,06,05,13.60
2016,08,08,06,06,13.60
2016,08,08,06,07,13.60
2016,08,08,06,08,13.50
2016,08,08,06,09,13.50
2016,08,08,06,10,13.50
2016,08,08,06,11,13.50
2016,08,08,06,12,13.50
2016,08,08,06,13,13.50
2016,08,08,06,14,13.50
2016,08,08,06,15,13.50
2016,08,08,06,16,13.50
2016,08,08,06,17,13.50
2016,08,08,06,18,13.50
2016,08,08,06,19,13.50
2016,08,08,06,20,13.50
2016,08,08,06,21,13.50
2016,08,08,06,22,13.50
2016,08,08,06,23,13.60
2016,08,08,06,24,13.60
2016,08,08,06,25,13.60
2016,08,08,06,26,13.60
2016,08,08,06,27,13.60
2016,08,08,06,28,13.60
2016,08,08,06,29,13.60
2016,08,08,06,30,13.60
2016,08,08,06,31,13.70
2016,08,08,06,32,13.70
2016,08,08,06,33,13.70
2016,08,08,06,34,13.70
2016,08,08,06,35,13.70
2016,08,08,06,36,13.80
2016,08,08,06,37,13.80
2016,08,08,06,38,13.80
2016,08,08,06,39,13.80
2016,08,08,06,40,13.80
2016,08,08,06,41,13.80
2016,08,08,06,42,13.90
2016,08,08,06,43,13.90
2016,08,08,06,44,13.90
2016,08,08,06,45,13.90
2016,08,08,06,46,13.90
2016,08,08,06,47,13.90
2016,08,08,06,48,13.90
2016,08,08,06,49,13.90
2016,08,08,06,50,13.90
2016,08,08,06,51,13.90
2016,08,08,06,52,13.90
2016,08,08,06,53,13.90
2016,08,08,06,54,13.90
2016,08,08,06,55,13.90
2016,08,08,06,56,14.00
2016,08,08,06,57,14.00
2016,08,08,06,58,14.00
2016,08,08,06,59,14.10
2016,08,08,07,00,14.10
2016,08,08,07,01,14.10
2016,08,08,07,02,14.10
2016,08,08,07,03,14.10
2016,08,08,07,04,14.20
2016,08,08,07,05,14.20
2016,08,08,07,06,14.20
2016,08,08,07,07,14.20
2016,08,08,07,08,14.30
2016,08,08,07,09,14.30
2016,08,08,07,10,14.30
2016,08,08,07,11,14.30
2016,08,08,07,12,14.40
2016,08,08,07,13,14.40
2016,08,08,07,14,14.40
2016,08,08,07,15,14.40
2016,08,08,07,16,14.50
2016,08,08,07,17,14.50
2016,08,08,07,18,14.60
2016,08,08,07,19,14.60
2016,08,08,07,20,14.70
2016,08,08,07,21,14.70
2016,08,08,07,22,14.80
2016,08,08,07,23,14.90
2016,08,08,07,24,15.00
2016,08,08,07,25,15.10
2016,08,08,07,26,15.10
2016,08,08,07,27,15.20
2016,08,08,07,28,15.30
2016,08,08,07,29,15.40
2016,08,08,07,30,15.50
2016,08,08,07,31,15.60
2016,08,08,07,32,15.70
2016,08,08,07,33,15.80
2016,08,08,07,34,15.90
2016,08,08,07,35,16.00
2016,08,08,07,36,16.10
2016,08,08,07,37,16.20
2016,08,08,07,38,16.20
2016,08,08,07,39,16.30
2016,08,08,07,40,16.30
2016,08,08,07,41,16.40
2016,08,08,07,42,16.40
2016,08,08,07,43,16.40
2016,08,08,07,44,16.50
2016,08,08,07,45,16.50
2016,08,08,07,46,16.60
2016,08,08,07,47,16.60
2016,08,08,07,48,16.60
2016,08,08,07,49,16.70
2016,08,08,07,50,16.70
2016,08,08,07,51,16.80
2016,08,08,07,52,16.90
2016,08,08,07,53,17.00
2016,08,08,07,54,17.00
2016,08,08,07,55,17.10
2016,08,08,07,56,17.20
2016,08,08,07,57,17.20
2016,08,08,07,58,17.30
2016,08,08,07,59,17.30
2016,08,08,08,00,17.30
2016,08,08,08,01,17.40
2016,08,08,08,02,17.40
2016,08,08,08,03,17.40
2016,08,08,08,04,17.40
2016,08,08,08,05,17.40
2016,08,08,08,06,17.40
2016,08,08,08,07,17.40
2016,08,08,08,08,17.40
2016,08,08,08,09,17.40
2016,08,08,08,10,17.50
2016,08,08,08,11,17.50
2016,08,08,08,12,17.50
2016,08,08,08,13,17.50
2016,08,08,08,14,17.50
2016,08,08,08,15,17.50
2016,08,08,08,16,17.50
2016,08,08,08,17,17.50
2016,08,08,08,18,17.50
2016,08,08,08,19,17.50
2016,08,08,08,20,17.50
2016,08,08,08,21,17.50
2016,08,08,08,22,17.50
2016,08,08,08,23,17.50
2016,08,08,08,24,17.50
2016,08,08,08,25,17.50
2016,08,08,08,26,17.60
2016,08,08,08,27,17.60
2016,08,08,08,28,17.70
2016,08,08,08,29,17.70
2016,08,08,08,30,17.80
2016,08,08,08,31,17.80
2016,08,08,08,32,17.90
2016,08,08,08,33,17.90
2016,08,08,08,34,17.90
2016,08,08,08,35,17.90
2016,08,08,08,36,17.80
2016,08,08,08,37,17.80
2016,08,08,08,38,17.80
2016,08,08,08,39,17.80
2016,08,08,08,40,17.80
2016,08,08,08,41,17.80
2016,08,08,08,42,17.80
2016,08,08,08,43,17.80
2016,08,08,08,44,17.80
2016,08,08,08,45,17.80
2016,08,08,08,46,17.80
2016,08,08,08,47,17.90
2016,08,08,08,48,17.90
2016,08,08,08,49,17.90
2016,08,08,08,50,18.00
2016,08,08,08,51,18.00
2016,08,08,08,52,18.10
2016,08,08,08,53,18.10
2016,08,08,08,54,18.20
2016,08,08,08,55,18.20
2016,08,08,08,56,18.20
2016,08,08,08,57,18.30
2016,08,08,08,58,18.40
2016,08,08,08,59,18.60
2016,08,08,09,00,18.70
2016,08,08,09,01,18.80
2016,08,08,09,02,18.90
2016,08,08,09,03,19.00
2016,08,08,09,04,19.10
2016,08,08,09,05,19.20
2016,08,08,09,06,19.20
2016,08,08,09,07,19.30
2016,08,08,09,08,19.30
2016,08,08,09,09,19.40
2016,08,08,09,10,19.40
2016,08,08,09,11,19.40
2016,08,08,09,12,19.40
2016,08,08,09,13,19.40
2016,08,08,09,14,19.30
2016,08,08,09,15,19.30
2016,08,08,09,16,19.20
2016,08,08,09,17,19.10
2016,08,08,09,18,19.10
2016,08,08,09,19,19.00
2016,08,08,09,20,18.90
2016,08,08,09,21,18.90
2016,08,08,09,22,18.80
2016,08,08,09,23,18.80
2016,08,08,09,24,18.80
2016,08,08,09,25,18.80
2016,08,08,09,26,18.80
2016,08,08,09,27,18.80
2016,08,08,09,28,18.80
2016,08,08,09,29,18.80
2016,08,08,09,30,18.80
2016,08,08,09,31,18.90
2016,08,08,09,32,18.90
2016,08,08,09,33,18.80
2016,08,08,09,34,18.80
2016,08,08,09,35,18.80
2016,08,08,09,36,18.80
2016,08,08,09,37,18.70
2016,08,08,09,38,18.70
2016,08,08,09,39,18.70
2016,08,08,09,40,18.70
2016,08,08,09,41,18.60
2016,08,08,09,42,18.60
2016,08,08,09,43,18.50
2016,08,08,09,44,18.50
2016,08,08,09,45,18.50
2016,08,08,09,46,18.50
2016,08,08,09,47,18.50
2016,08,08,09,48,18.60
2016,08,08,09,49,18.60
2016,08,08,09,50,18.60
2016,08,08,09,51,18.70
2016,08,08,09,52,18.70
2016,08,08,09,53,18.80
2016,08,08,09,54,18.80
2016,08,08,09,55,18.90
2016,08,08,09,56,18.90
2016,08,08,09,57,19.00
2016,08,08,09,58,19.10
2016,08,08,09,59,19.20
2016,08,08,10,00,19.40
2016,08,08,10,01,19.50
2016,08,08,10,02,19.60
2016,08,08,10,03,19.70
2016,08,08,10,04,19.90
2016,08,08,10,05,20.00
2016,08,08,10,06,20.10
2016,08,08,10,07,20.20
2016,08,08,10,08,20.30
2016,08,08,10,09,20.30
2016,08,08,10,10,20.40
2016,08,08,10,11,20.40
2016,08,08,10,12,20.40
2016,08,08,10,13,20.40
2016,08,08,10,14,20.40
2016,08,08,10,15,20.40
2016,08,08,10,16,20.50
2016,08,08,10,17,20.50
2016,08,08,10,18,20.50
2016,08,08,10,19,20.50
2016,08,08,10,20,20.50
2016,08,08,10,21,20.50
2016,08,08,10,22,20.50
2016,08,08,10,23,20.50
2016,08,08,10,24,20.40
2016,08,08,10,25,20.30
2016,08,08,10,26,20.30
2016,08,08,10,27,20.20
2016,08,08,10,28,20.20
2016,08,08,10,29,20.20
2016,08,08,10,30,20.10
2016,08,08,10,31,20.10
2016,08,08,10,32,20.10
2016,08,08,10,33,20.10
2016,08,08,10,34,20.10
2016,08,08,10,35,20.00
2016,08,08,10,36,20.00
2016,08,08,10,37,20.00
2016,08,08,10,38,20.00
2016,08,08,10,39,20.00
2016,08,08,10,40,19.90
2016,08,08,10,41,19.90
2016,08,08,10,42,19.90
2016,08,08,10,43,19.90
2016,08,08,10,44,19.90
2016,08,08,10,45,20.00
2016,08,08,10,46,20.00
2016,08,08,10,47,20.20
2016,08,08,10,48,20.30
2016,08,08,10,49,20.30
2016,08,08,10,50,20.40
2016,08,08,10,51,20.40
2016,08,08,10,52,20.40
2016,08,08,10,53,20.40
2016,08,08,10,54,20.30
2016,08,08,10,55,20.30
2016,08,08,10,56,20.30
2016,08,08,10,57,20.30
2016,08,08,10,58,20.40
2016,08,08,10,59,20.50
2016,08,08,11,00,20.50
2016,08,08,11,01,20.60
2016,08,08,11,02,20.60
2016,08,08,11,03,20.60
2016,08,08,11,04,20.60
2016,08,08,11,05,20.60
2016,08,08,11,06,20.70
2016,08,08,11,07,20.70
2016,08,08,11,08,20.80
2016,08,08,11,09,20.80
2016,08,08,11,10,20.80
2016,08,08,11,11,20.70
2016,08,08,11,12,20.70
2016,08,08,11,13,20.60
2016,08,08,11,14,20.60
2016,08,08,11,15,20.60
2016,08,08,11,16,20.70
2016,08,08,11,17,20.70
2016,08,08,11,18,20.70
2016,08,08,11,19,20.70
2016,08,08,11,20,20.70
2016,08,08,11,21,20.70
2016,08,08,11,22,20.70
2016,08,08,11,23,20.70
2016,08,08,11,24,20.70
2016,08,08,11,25,20.70
2016,08,08,11,26,20.60
2016,08,08,11,27,20.60
2016,08,08,11,28,20.60
2016,08,08,11,29,20.60
2016,08,08,11,30,20.50
2016,08,08,11,31,20.50
2016,08,08,11,32,20.50
2016,08,08,11,33,20.50
2016,08,08,11,34,20.50
2016,08,08,11,35,20.50
2016,08,08,11,36,20.50
2016,08,08,11,37,20.50
2016,08,08,11,38,20.60
2016,08,08,11,39,20.60
2016,08,08,11,40,20.60
2016,08,08,11,41,20.70
2016,08,08,11,42,20.80
2016,08,08,11,43,20.90
2016,08,08,11,44,21.00
2016,08,08,11,45,21.10
2016,08,08,11,46,21.20
2016,08,08,11,47,21.30
2016,08,08,11,48,21.30
2016,08,08,11,49,21.40
2016,08,08,11,50,21.50
2016,08,08,11,51,21.60
2016,08,08,11,52,21.70
2016,08,08,11,53,21.70
2016,08,08,11,54,21.80
2016,08,08,11,55,21.90
2016,08,08,11,56,22.10
2016,08,08,11,57,22.20
2016,08,08,11,58,22.30
2016,08,08,11,59,22.50
2016,08,08,12,00,22.60
2016,08,08,12,01,22.60
2016,08,08,12,02,22.70
2016,08,08,12,03,22.70
2016,08,08,12,04,22.70
2016,08,08,12,05,22.60
2016,08,08,12,06,22.40
2016,08,08,12,07,22.30
2016,08,08,12,08,22.20
2016,08,08,12,09,22.20
2016,08,08,12,10,22.20
2016,08,08,12,11,22.20
2016,08,08,12,12,22.10
2016,08,08,12,13,22.00
2016,08,08,12,14,22.00
2016,08,08,12,15,21.90
2016,08,08,12,16,21.80
2016,08,08,12,17,21.80
2016,08,08,12,18,21.80
2016,08,08,12,19,21.70
2016,08,08,12,20,21.70
2016,08,08,12,21,21.80
2016,08,08,12,22,21.80
2016,08,08,12,23,21.90
2016,08,08,12,24,22.00
2016,08,08,12,25,22.10
2016,08,08,12,26,22.20
2016,08,08,12,27,22.30
2016,08,08,12,28,22.40
2016,08,08,12,29,22.50
2016,08,08,12,30,22.40
2016,08,08,12,31,22.30
2016,08,08,12,32,22.10
2016,08,08,12,33,22.00
2016,08,08,12,34,21.80
2016,08,08,12,35,21.80
2016,08,08,12,36,21.70
2016,08,08,12,37,21.70
2016,08,08,12,38,21.80
2016,08,08,12,39,21.90
2016,08,08,12,40,22.00
2016,08,08,12,41,22.00
2016,08,08,12,42,22.00
2016,08,08,12,43,22.00
2016,08,08,12,44,22.00
2016,08,08,12,45,21.90
2016,08,08,12,46,22.00
2016,08,08,12,47,22.00
2016,08,08,12,48,22.00
2016,08,08,12,49,22.00
2016,08,08,12,50,22.00
2016,08,08,12,51,21.90
2016,08,08,12,52,21.90
2016,08,08,12,53,21.90
2016,08,08,12,54,22.10
2016,08,08,12,55,22.20
2016,08,08,12,56,22.20
2016,08,08,12,57,22.30
2016,08,08,12,58,22.40
2016,08,08,12,59,22.50
2016,08,08,13,00,22.50
2016,08,08,13,01,22.60
2016,08,08,13,02,22.50
2016,08,08,13,03,22.50
2016,08,08,13,04,22.50
2016,08,08,13,05,22.50
2016,08,08,13,06,22.60
2016,08,08,13,07,22.60
2016,08,08,13,08,22.70
2016,08,08,13,09,22.60
2016,08,08,13,10,22.60
2016,08,08,13,11,22.60
2016,08,08,13,12,22.50
2016,08,08,13,13,22.50
2016,08,08,13,14,22.50
2016,08,08,13,15,22.50
2016,08,08,13,16,22.50
2016,08,08,13,17,22.50
2016,08,08,13,18,22.60
2016,08,08,13,19,22.70
2016,08,08,13,20,22.70
2016,08,08,13,21,22.80
2016,08,08,13,22,22.80
2016,08,08,13,23,22.80
2016,08,08,13,24,22.80
2016,08,08,13,25,22.90
2016,08,08,13,26,23.00
2016,08,08,13,27,23.20
2016,08,08,13,28,23.40
2016,08,08,13,29,23.40
2016,08,08,13,30,23.40
2016,08,08,13,31,23.30
2016,08,08,13,32,23.30
2016,08,08,13,33,23.20
2016,08,08,13,34,23.10
2016,08,08,13,35,23.00
2016,08,08,13,36,22.90
2016,08,08,13,37,22.80
2016,08,08,13,38,22.70
2016,08,08,13,39,22.50
2016,08,08,13,40,22.30
2016,08,08,13,41,22.20
2016,08,08,13,42,22.10
2016,08,08,13,43,22.10
2016,08,08,13,44,22.00
2016,08,08,13,45,22.00
2016,08,08,13,46,22.00
2016,08,08,13,47,22.10
2016,08,08,13,48,22.20
2016,08,08,13,49,22.20
2016,08,08,13,50,22.20
2016,08,08,13,51,22.30
2016,08,08,13,52,22.50
2016,08,08,13,53,22.60
2016,08,08,13,54,22.60
2016,08,08,13,55,22.50
2016,08,08,13,56,22.50
2016,08,08,13,57,22.50
2016,08,08,13,58,22.60
2016,08,08,13,59,22.60
2016,08,08,14,00,22.70
2016,08,08,14,01,22.70
2016,08,08,14,02,22.80
2016,08,08,14,03,22.80
2016,08,08,14,04,22.90
2016,08,08,14,05,22.90
2016,08,08,14,06,22.90
2016,08,08,14,07,22.80
2016,08,08,14,08,22.80
2016,08,08,14,09,22.80
2016,08,08,14,10,22.80
2016,08,08,14,11,22.90
2016,08,08,14,12,23.00
2016,08,08,14,13,23.10
2016,08,08,14,14,23.10
2016,08,08,14,15,23.10
2016,08,08,14,16,23.20
2016,08,08,14,17,23.20
2016,08,08,14,18,23.10
2016,08,08,14,19,23.00
2016,08,08,14,20,23.00
2016,08,08,14,21,22.90
2016,08,08,14,22,22.90
2016,08,08,14,23,22.90
2016,08,08,14,24,22.90
2016,08,08,14,25,22.90
2016,08,08,14,26,22.80
2016,08,08,14,27,22.80
2016,08,08,14,28,22.80
2016,08,08,14,29,22.80
2016,08,08,14,30,22.80
2016,08,08,14,31,22.80
2016,08,08,14,32,22.80
2016,08,08,14,33,22.80
2016,08,08,14,34,22.80
2016,08,08,14,35,22.90
2016,08,08,14,36,22.90
2016,08,08,14,37,23.10
2016,08,08,14,38,23.10
2016,08,08,14,39,23.20
2016,08,08,14,40,23.20
2016,08,08,14,41,23.20
2016,08,08,14,42,23.20
2016,08,08,14,43,23.00
2016,08,08,14,44,22.90
2016,08,08,14,45,22.90
2016,08,08,14,46,22.90
2016,08,08,14,47,22.90
2016,08,08,14,48,23.00
2016,08,08,14,49,23.10
2016,08,08,14,50,23.10
2016,08,08,14,51,23.20
2016,08,08,14,52,23.10
2016,08,08,14,53,23.00
2016,08,08,14,54,22.80
2016,08,08,14,55,22.70
2016,08,08,14,56,22.60
2016,08,08,14,57,22.50
2016,08,08,14,58,22.50
2016,08,08,14,59,22.50
2016,08,08,15,00,22.50
2016,08,08,15,01,22.50
2016,08,08,15,02,22.50
2016,08,08,15,03,22.50
2016,08,08,15,04,22.50
2016,08,08,15,05,22.50
2016,08,08,15,06,22.50
2016,08,08,15,07,22.40
2016,08,08,15,08,22.40
2016,08,08,15,09,22.40
2016,08,08,15,10,22.50
2016,08,08,15,11,22.50
2016,08,08,15,12,22.50
2016,08,08,15,13,22.50
2016,08,08,15,14,22.40
2016,08,08,15,15,22.30
2016,08,08,15,16,22.20
2016,08,08,15,17,22.20
2016,08,08,15,18,22.20
2016,08,08,15,19,22.10
2016,08,08,15,20,22.10
2016,08,08,15,21,22.00
2016,08,08,15,22,22.00
2016,08,08,15,23,22.00
2016,08,08,15,24,22.00
2016,08,08,15,25,22.00
2016,08,08,15,26,22.10
2016,08,08,15,27,22.10
2016,08,08,15,28,22.10
2016,08,08,15,29,22.10
2016,08,08,15,30,22.10
2016,08,08,15,31,22.10
2016,08,08,15,32,22.10
2016,08,08,15,33,22.10
2016,08,08,15,34,22.10
2016,08,08,15,35,22.10
2016,08,08,15,36,22.00
2016,08,08,15,37,22.00
2016,08,08,15,38,22.00
2016,08,08,15,39,22.10
2016,08,08,15,40,22.10
2016,08,08,15,41,22.00
2016,08,08,15,42,22.00
2016,08,08,15,43,22.00
2016,08,08,15,44,22.00
2016,08,08,15,45,22.00
2016,08,08,15,46,22.00
2016,08,08,15,47,22.00
2016,08,08,15,48,22.00
2016,08,08,15,49,22.00
2016,08,08,15,50,21.90
2016,08,08,15,51,21.90
2016,08,08,15,52,21.90
2016,08,08,15,53,21.90
2016,08,08,15,54,21.90
2016,08,08,15,55,21.80
2016,08,08,15,56,21.80
2016,08,08,15,57,21.80
2016,08,08,15,58,21.80
2016,08,08,15,59,21.90
2016,08,08,16,00,21.90
2016,08,08,16,01,21.90
2016,08,08,16,02,21.90
2016,08,08,16,03,21.90
2016,08,08,16,04,21.80
2016,08,08,16,05,21.80
2016,08,08,16,06,21.70
2016,08,08,16,07,21.70
2016,08,08,16,08,21.60
2016,08,08,16,09,21.60
2016,08,08,16,10,21.60
2016,08,08,16,11,21.60
2016,08,08,16,12,21.60
2016,08,08,16,13,21.60
2016,08,08,16,14,21.60
2016,08,08,16,15,21.60
2016,08,08,16,16,21.60
2016,08,08,16,17,21.60
2016,08,08,16,18,21.60
2016,08,08,16,19,21.60
2016,08,08,16,20,21.60
2016,08,08,16,21,21.70
2016,08,08,16,22,21.70
2016,08,08,16,23,21.70
2016,08,08,16,24,21.70
2016,08,08,16,25,21.70
2016,08,08,16,26,21.70
2016,08,08,16,27,21.70
2016,08,08,16,28,21.70
2016,08,08,16,29,21.70
2016,08,08,16,30,21.60
2016,08,08,16,31,21.60
2016,08,08,16,32,21.60
2016,08,08,16,33,21.60
2016,08,08,16,34,21.60
2016,08,08,16,35,21.60
2016,08,08,16,36,21.60
2016,08,08,16,37,21.60
2016,08,08,16,38,21.60
2016,08,08,16,39,21.60
2016,08,08,16,40,21.60
2016,08,08,16,41,21.60
2016,08,08,16,42,21.60
2016,08,08,16,43,21.60
2016,08,08,16,44,21.50
2016,08,08,16,45,21.50
2016,08,08,16,46,21.50
2016,08,08,16,47,21.50
2016,08,08,16,48,21.50
2016,08,08,16,49,21.40
2016,08,08,16,50,21.40
2016,08,08,16,51,21.40
2016,08,08,16,52,21.40
2016,08,08,16,53,21.40
2016,08,08,16,54,21.40
2016,08,08,16,55,21.40
2016,08,08,16,56,21.40
2016,08,08,16,57,21.40
2016,08,08,16,58,21.30
2016,08,08,16,59,21.30
2016,08,08,17,00,21.30
2016,08,08,17,01,21.30
2016,08,08,17,02,21.30
2016,08,08,17,03,21.30
2016,08,08,17,04,21.40
2016,08,08,17,05,21.40
2016,08,08,17,06,21.40
2016,08,08,17,07,21.40
2016,08,08,17,08,21.40
2016,08,08,17,09,21.40
2016,08,08,17,10,21.30
2016,08,08,17,11,21.30
2016,08,08,17,12,21.30
2016,08,08,17,13,21.30
2016,08,08,17,14,21.20
2016,08,08,17,15,21.20
2016,08,08,17,16,21.10
2016,08,08,17,17,21.10
2016,08,08,17,18,21.10
2016,08,08,17,19,21.00